Location: Chiroubles
(46.1812°N, 4.6660°E)
Time: 10:40:21
(UTC+00:00)

SR - Pass Details

Date: 27 November 2020
Orbit: 575 x 880 km, 66.7° (Epoch: 19 January)

Event Time Altitude Azimuth Distance (km) Brightness Sun altitude
Rises 19:30:11 0° 240° (WSW) 2,817 ? -36.0°
Reaches altitude 10° 19:32:33 10° 251° (WSW) 1,946 ? -36.4°
Enters shadow 19:33:28 15° 258° (WSW) 1,644 ? -36.5°
